Temperature
18 18 18 18 18 18 18 18 18 18 18 18 18 18 18 18 18 18 18 18 18 18 17 17 17 17 17 17 17 17 17 16 16 16 16 16 16 16 16 16 16 15 16
19 19 19 18 18 18 18 18 18 18 18 18 18 18 18 18 18 17 17 17 17 17 17 17 17 17 17 17 17 17 17 16 16 16 16 16 16 16 16 16 16 15 15
19 19 19 18 18 18 18 18 18 18 18 18 18 18 18 17 17 17 17 17 17 17 17 17 17 17 17 17 17 17 16 16 16 16 16 16 16 16 16 16 15 15 15
19 19 19 18 18 18 18 18 18 18 18 18 18 18 18 17 17 17 17 17 17 17 17 17 17 17 16 16 16 16 16 16 16 16 16 16 16 16 16 15 15 15 15
19 19 19 19 18 18 18 18 18 18 18 18 18 18 17 17 17 17 17 17 17 17 17 17 16 16 16 16 16 16 16 16 16 16 16 16 16 15 15 15 15 15 15
19 19 19 19 18 18 18 18 18 18 18 18 18 17 17 17 17 17 17 17 17 17 17 16 16 16 16 16 16 16 16 16 16 16 16 15 15 15 15 15 15 15 15
19 19 19 19 19 18 18 18 18 18 18 18 18 17 17 17 17 17 17 17 16 16 16 16 16 16 16 16 16 16 16 15 15 15 15 15 15 15 15 15 15 15 15
18 19 19 19 19 18 18 18 18 18 18 18 17 17 17 17 17 17 17 16 16 16 16 16 16 16 16 15 15 15 15 15 15 15 15 15 15 15 15 15 15 15 14
18 18 18 19 19 18 18 18 18 18 18 18 17 17 17 17 16 16 16 16 16 16 16 16 16 16 15 15 15 15 15 15 15 15 15 15 14 14 14 14 14 14 14
19 18 18 18 18 18 18 18 18 18 18 18 17 17 17 17 17 16 16 16 16 15 15 15 15 15 15 15 15 15 15 15 15 15 15 14 14 14 14 14 14 14 14
19 18 18 18 18 18 18 18 18 18 18 18 18 17 17 17 17 17 16 16 15 15 15 15 15 15 15 15 15 15 15 15 15 15 14 14 14 14 14 14 14 14 13
18 18 18 18 18 18 18 18 18 18 18 18 18 17 17 17 17 17 16 16 15 15 15 15 15 15 15 14 14 14 15 15 14 14 14 14 14 14 14 14 14 13 13
19 18 18 18 18 18 18 18 18 18 18 18 18 17 17 17 17 17 17 16 15 15 15 14 14 14 14 14 14 14 14 14 14 14 14 14 14 14 14 13 13 13 13
19 19 18 18 18 18 18 18 18 18 18 17 17 17 17 17 17 17 17 16 15 15 14 14 14 14 14 14 14 14 14 14 14 14 14 13 13 13 13 13 13 13 13
19 19 18 18 18 18 18 18 18 18 17 17 17 17 17 17 17 17 16 16 16 15 14 14 14 14 14 14 14 14 14 14 14 14 13 13 13 13 13 13 13 13 13
19 19 18 18 18 18 18 18 18 18 17 17 17 17 17 17 17 16 16 16 16 16 15 14 14 14 14 14 14 14 14 13 13 13 13 13 13 13 13 13 13 12 12
19 18 18 18 18 18 18 18 18 17 17 17 17 17 17 17 17 16 16 16 15 15 15 14 14 14 14 14 14 13 13 13 13 13 13 13 13 13 13 12 12 12 12
19 19 18 18 18 18 18 17 17 17 17 17 17 17 16 16 16 16 16 16 15 15 15 15 14 14 14 13 13 13 13 13 13 13 13 13 13 12 12 12 12 12 12
19 19 18 18 18 18 18 17 17 17 17 17 17 16 16 16 16 16 15 15 15 15 15 15 14 14 14 13 13 13 13 13 13 13 12 12 12 12 12 12 12 12 12
19 19 18 18 18 18 18 17 17 17 17 17 16 16 16 16 16 15 15 15 15 15 14 14 14 14 14 13 13 13 13 13 12 12 12 12 12 12 12 12 12 12 12
19 18 18 18 18 18 18 17 17 17 17 16 16 16 16 16 15 15 15 15 15 14 14 14 14 14 13 13 13 13 13 13 12 12 12 12 12 12 12 12 12 11 11
18 18 18 18 18 18 18 17 17 17 17 16 16 16 16 15 15 15 15 15 14 14 14 14 14 14 14 13 13 13 12 12 12 12 12 12 12 12 12 12 12 11 11
18 18 18 18 18 18 17 17 17 17 16 16 16 16 16 15 15 15 15 14 14 14 14 14 14 14 13 13 13 13 12 12 12 12 12 12 12 12 12 12 11 11 11
18 18 18 18 18 18 17 17 17 16 16 16 16 16 15 15 15 15 15 14 14 14 14 14 14 13 13 13 13 13 12 12 12 12 12 12 12 12 12 12 11 11 11
18 18 18 18 18 17 17 17 17 16 16 16 16 15 15 15 15 15 14 14 14 14 14 13 13 13 13 13 13 12 12 12 12 12 11 11 11 11 11 11 11 11 11
19 18 18 18 18 17 17 17 17 16 16 16 16 15 15 15 15 15 14 14 14 14 14 13 13 13 13 13 13 12 12 12 12 12 12 11 11 11 11 11 11 11 11
Wind_Speed
4 3 3 3 4 4 3 3 3 2 1 2 2 2 2 3 5 6 6 11 13 12 13 13 13 12 12 12 13 13 12 12 12 12 12 12 11 10 10 10 11 10 10
4 3 3 2 3 4 4 4 3 2 2 2 1 2 3 4 6 6 5 7 10 11 11 11 11 11 11 11 12 13 12 12 12 12 12 12 11 11 11 10 11 11 11
4 4 3 2 2 4 3 3 2 2 2 1 1 1 2 3 5 5 6 5 6 8 9 10 9 8 8 9 10 11 12 12 12 12 13 12 12 12 11 11 11 11 11
4 3 2 1 2 3 2 2 1 1 1 1 1 1 1 3 4 5 5 4 4 4 5 7 7 7 7 8 8 9 10 11 12 12 12 12 12 13 12 11 11 11 11
3 3 2 2 3 2 2 2 2 2 2 1 1 1 1 2 2 3 3 3 3 3 3 4 5 6 6 5 6 7 8 9 10 10 11 11 11 11 11 11 12 12 12
3 3 2 2 2 2 1 1 2 1 2 2 2 2 2 1 1 1 2 2 3 3 3 2 2 1 2 2 2 4 5 7 8 9 9 9 9 9 10 11 11 11 12
4 3 2 2 2 2 2 2 2 2 1 2 3 2 3 3 2 1 1 2 3 3 4 4 4 3 2 1 1 1 3 5 6 7 7 7 8 8 9 9 10 10 10
3 3 3 2 2 3 2 2 2 2 1 2 3 2 2 3 3 3 2 2 2 2 3 3 5 4 4 3 2 1 1 3 5 6 7 7 7 7 8 8 9 9 10
3 3 3 3 3 3 2 2 2 3 1 0 1 3 3 2 0 2 2 2 2 2 2 3 4 5 5 4 4 3 3 2 2 4 5 6 5 5 6 7 8 8 9
2 3 3 3 3 2 2 2 2 1 3 1 0 0 2 4 3 1 2 2 2 2 1 2 3 4 5 5 4 4 4 4 3 4 4 5 4 4 4 5 6 6 6
1 2 3 2 2 2 2 2 2 2 2 2 1 1 1 1 2 3 1 0 1 1 1 2 3 3 4 4 4 4 4 5 5 5 4 4 4 4 3 4 4 4 4
1 1 2 2 2 2 2 2 2 2 2 2 1 1 2 2 2 2 2 2 1 0 1 1 2 2 3 3 3 4 5 5 5 5 5 4 3 3 3 3 3 3 3
0 1 1 1 1 2 2 2 2 2 1 2 1 1 1 1 2 2 3 2 1 0 1 1 0 2 3 3 3 3 4 4 5 6 5 4 4 3 3 3 3 3 3
2 2 2 2 2 2 3 3 3 2 2 2 2 2 1 1 2 3 3 3 2 0 0 1 0 1 2 4 3 3 3 4 5 5 5 5 5 5 5 4 4 4 4
2 2 2 3 2 3 3 3 2 2 2 2 2 2 2 1 1 2 2 4 4 2 2 2 1 1 2 3 3 4 4 4 4 4 4 4 4 5 5 5 6 5 5
2 2 3 3 3 2 3 3 2 2 2 1 1 2 2 1 1 2 2 2 3 4 3 2 2 2 3 3 3 4 4 4 4 4 3 3 4 3 4 5 5 5 6
3 3 3 3 3 2 2 3 2 2 2 1 1 2 1 1 2 1 2 2 2 3 3 2 1 1 2 2 2 3 3 3 3 4 4 4 3 3 4 4 5 5 5
4 4 4 3 3 3 3 3 3 2 2 2 1 1 0 1 2 2 2 2 2 2 4 3 1 1 2 2 2 3 3 3 3 4 5 5 4 4 4 5 5 5 5
4 4 4 4 3 3 3 3 3 3 3 3 3 2 1 2 1 1 2 2 2 2 2 3 2 1 1 1 1 1 2 2 3 4 5 6 6 6 6 6 6 6 6
5 4 4 4 3 3 3 3 3 3 3 3 3 3 2 3 3 3 2 3 3 2 2 3 2 2 2 1 2 1 1 1 2 3 4 5 6 7 7 7 7 7 7
5 4 4 3 3 3 3 3 3 3 3 2 2 2 3 3 4 4 3 3 4 3 3 3 2 1 2 2 3 3 2 2 2 2 2 3 4 4 6 8 9 9 9
5 4 4 4 3 3 4 5 4 3 3 3 3 2 2 2 2 3 4 5 6 6 5 4 3 4 4 4 3 3 3 1 2 2 3 3 3 3 6 8 10 11 12
5 5 5 4 4 4 6 6 6 4 3 3 3 2 2 2 3 1 2 3 3 5 7 6 6 6 5 6 5 5 5 4 4 3 3 3 3 4 6 9 12 13 14
5 5 5 5 5 5 6 7 6 4 3 3 4 4 3 3 3 3 2 1 2 3 5 5 6 7 6 6 7 7 6 4 2 2 3 3 3 4 5 8 12 15 15
5 5 5 5 5 5 6 7 6 3 3 3 3 4 4 4 5 6 4 2 2 3 4 5 7 6 7 8 7 4 3 2 3 3 3 3 3 3 3 4 9 13 16
6 5 5 5 5 5 6 7 7 4 3 3 2 3 5 5 6 7 5 4 4 4 3 2 3 4 5 6 9 7 6 4 3 3 4 4 3 2 2 3 4 7 10
Wind_Direction
147 156 161 174 187 192 187 169 176 181 194 216 213 175 165 171 151 159 170 177 181 186 188 191 190 193 198 203 206 207 205 203 204 205 206 208 208 204 200 201 199 197 197
149 149 154 164 176 186 185 174 178 173 185 177 167 170 163 148 141 149 157 175 188 192 194 192 195 198 203 206 208 209 208 207 207 209 209 209 208 205 201 200 203 204 203
143 141 142 152 168 171 170 166 162 152 147 133 116 117 143 141 140 145 154 170 187 195 196 194 197 199 203 209 212 210 211 211 210 210 212 211 206 204 204 204 206 205 201
142 126 128 158 165 151 148 150 143 121 107 111 85 69 110 129 134 145 150 156 167 183 197 197 196 202 209 211 215 213 212 214 213 213 211 211 209 208 207 206 207 206 204
150 136 143 152 145 133 137 159 144 142 143 141 135 92 76 119 146 140 135 138 167 173 178 194 205 213 214 214 213 211 213 213 211 211 210 210 211 210 207 208 210 210 209
140 138 137 130 131 123 114 111 127 123 157 160 123 79 49 60 96 116 143 135 149 160 163 147 136 146 171 187 209 212 214 211 204 201 204 204 205 206 206 209 212 212 212
139 117 119 110 112 126 144 139 118 99 88 114 89 53 25 30 42 52 84 98 101 109 108 109 102 90 80 95 175 205 207 201 195 193 194 194 197 202 204 206 209 210 209
138 126 119 118 121 123 110 109 104 104 103 116 123 106 50 12 18 39 64 99 95 95 99 106 103 96 85 66 51 40 216 195 195 194 193 192 194 195 195 200 204 206 207
114 113 123 123 120 124 130 133 120 125 143 211 132 139 144 192 296 3 38 70 92 87 89 100 112 104 100 79 61 54 68 99 172 175 171 170 172 179 189 192 196 201 206
107 120 123 119 124 127 133 147 131 124 136 160 293 135 153 152 147 129 5 25 79 94 96 109 100 99 101 95 84 81 83 79 89 122 143 155 157 163 174 183 186 189 199
98 120 124 117 130 134 133 118 110 113 132 149 154 136 90 84 109 140 170 288 42 28 69 111 110 110 108 104 96 92 92 84 85 97 108 125 145 150 157 172 186 193 193
52 108 126 123 133 133 134 133 119 123 120 120 124 129 138 143 165 144 161 170 161 351 54 94 122 128 124 117 116 107 102 95 93 96 99 104 121 129 142 149 149 149 162
170 212 135 124 128 140 137 123 109 110 110 112 132 151 139 153 154 143 138 150 146 169 67 47 123 151 146 134 126 123 112 109 106 103 103 109 109 108 114 123 120 120 124
197 185 145 129 126 121 112 105 91 102 88 87 86 99 100 108 122 137 147 143 124 72 38 251 326 179 157 148 139 142 128 124 122 120 122 119 113 106 104 107 105 106 114
177 155 142 133 128 120 115 109 95 92 93 88 87 91 89 76 90 117 136 143 144 155 212 232 230 234 174 158 152 143 137 132 130 128 127 124 117 114 111 110 106 104 106
159 143 139 140 134 125 120 111 109 113 108 86 100 92 75 75 99 98 128 130 134 149 178 212 211 205 185 175 177 166 161 155 157 152 146 137 131 127 126 125 122 118 115
158 150 146 144 142 141 135 129 144 132 123 99 82 105 96 109 117 125 123 121 124 133 150 207 215 176 161 173 166 180 180 179 187 186 174 159 146 140 142 143 141 136 132
165 161 153 152 160 161 156 155 169 152 148 153 154 121 120 127 122 143 143 152 152 144 145 168 190 174 192 190 183 193 190 199 200 202 195 194 191 183 173 162 158 156 152
169 166 158 164 172 171 174 179 174 173 176 178 172 166 177 140 147 164 157 156 162 146 136 151 176 193 204 185 162 214 191 197 209 207 206 213 210 208 202 191 182 174 173
173 177 176 176 178 177 179 187 177 181 186 188 184 182 181 174 181 178 165 165 153 138 137 145 161 186 197 193 160 195 230 244 227 209 209 218 220 221 217 210 201 194 191
184 182 174 178 178 174 189 187 184 181 180 188 196 202 193 182 181 180 171 170 156 151 153 157 171 175 199 184 201 202 210 223 254 217 207 226 217 224 230 224 216 210 209
182 172 174 178 185 198 192 181 172 180 183 183 202 226 212 183 189 184 173 174 173 171 179 179 189 201 215 210 198 193 185 172 250 231 189 235 203 229 235 229 225 221 219
181 181 186 183 195 204 195 189 186 179 189 201 205 203 210 206 191 174 174 173 194 197 188 185 193 210 209 206 189 195 199 200 220 210 177 230 224 235 239 236 231 226 221
185 190 196 198 202 213 200 196 194 187 195 212 212 203 203 201 207 192 181 192 240 242 221 205 206 215 212 205 199 199 201 208 238 220 172 210 222 229 242 236 233 226 223
190 192 196 199 206 224 211 204 190 184 202 226 231 218 208 206 218 194 175 200 254 280 263 233 220 221 219 209 192 167 171 176 238 249 203 191 217 226 240 244 238 229 225
195 193 202 207 207 217 213 205 190 182 202 228 241 242 223 217 214 197 190 195 224 249 255 271 257 248 241 227 207 194 191 195 214 238 218 190 204 181 243 252 232 229 227
Height
1538 1539 1540 1541 1541 1542 1542 1542 1542 1543 1543 1543 1543 1543 1543 1543 1543 1544 1544 1545 1545 1545 1545 1546 1546 1546 1547 1547 1548 1548 1549 1550 1551 1551 1552 1553 1553 1554 1555 1556 1557 1558 1559
1540 1540 1540 1541 1542 1542 1542 1543 1543 1543 1543 1543 1543 1543 1543 1543 1544 1544 1544 1544 1545 1545 1545 1545 1545 1546 1546 1546 1546 1547 1547 1548 1549 1549 1550 1551 1552 1552 1553 1554 1555 1556 1557
1540 1541 1541 1542 1542 1542 1543 1543 1543 1543 1543 1543 1543 1543 1543 1543 1543 1544 1544 1544 1545 1545 1545 1545 1545 1545 1545 1545 1545 1545 1545 1546 1547 1547 1548 1549 1549 1550 1551 1552 1553 1554 1555
1541 1542 1542 1542 1542 1542 1542 1543 1543 1543 1543 1543 1543 1543 1543 1543 1543 1544 1544 1544 1544 1544 1544 1544 1544 1543 1544 1543 1543 1543 1543 1544 1544 1545 1546 1546 1547 1548 1548 1549 1550 1552 1553
1542 1542 1542 1542 1542 1542 1542 1542 1542 1542 1542 1542 1542 1543 1543 1543 1543 1543 1543 1543 1543 1543 1543 1543 1543 1542 1542 1542 1541 1541 1541 1542 1542 1542 1543 1544 1544 1545 1546 1547 1548 1549 1550
1542 1542 1542 1542 1542 1542 1542 1542 1541 1541 1541 1541 1542 1542 1543 1543 1543 1543 1543 1543 1543 1543 1542 1542 1542 1541 1541 1540 1540 1540 1539 1539 1539 1540 1540 1541 1542 1542 1543 1544 1545 1546 1547
1543 1543 1542 1542 1542 1542 1541 1541 1540 1540 1540 1541 1541 1541 1542 1543 1543 1542 1542 1542 1542 1542 1542 1541 1541 1541 1540 1539 1538 1538 1538 1537 1537 1537 1538 1539 1539 1540 1541 1541 1542 1543 1544
1543 1543 1542 1542 1542 1541 1541 1541 1540 1540 1540 1540 1540 1540 1542 1543 1542 1542 1542 1542 1541 1541 1541 1541 1540 1540 1539 1538 1537 1537 1536 1536 1536 1536 1536 1536 1537 1537 1538 1538 1539 1540 1541
1543 1543 1542 1542 1541 1541 1541 1540 1540 1540 1539 1540 1540 1540 1540 1540 1541 1542 1541 1541 1541 1541 1541 1540 1539 1539 1538 1537 1536 1536 1535 1535 1534 1534 1534 1535 1535 1536 1536 1536 1537 1537 1539
1543 1542 1542 1542 1541 1541 1540 1540 1540 1540 1540 1539 1539 1539 1540 1540 1540 1540 1541 1541 1541 1540 1540 1539 1539 1537 1537 1536 1535 1534 1534 1533 1533 1532 1533 1533 1534 1534 1534 1534 1535 1536 1537
1542 1542 1541 1541 1541 1540 1540 1540 1539 1539 1539 1539 1538 1538 1539 1539 1539 1539 1539 1540 1540 1540 1539 1539 1538 1537 1536 1535 1535 1534 1533 1533 1532 1532 1531 1532 1532 1532 1533 1533 1534 1534 1535
1541 1541 1541 1540 1540 1539 1539 1539 1539 1539 1538 1538 1538 1538 1538 1538 1537 1537 1537 1538 1538 1539 1538 1538 1537 1537 1536 1535 1534 1534 1533 1532 1532 1531 1531 1531 1531 1531 1532 1532 1532 1533 1533
1541 1541 1540 1540 1539 1539 1539 1539 1539 1538 1538 1538 1538 1538 1537 1537 1537 1537 1537 1537 1537 1538 1537 1537 1537 1536 1536 1535 1534 1533 1533 1532 1531 1531 1531 1530 1530 1530 1530 1531 1531 1531 1531
1540 1540 1540 1540 1539 1539 1539 1539 1538 1538 1538 1538 1537 1537 1537 1537 1536 1536 1536 1536 1536 1536 1536 1536 1536 1535 1535 1534 1534 1534 1533 1532 1531 1531 1530 1530 1530 1530 1529 1530 1530 1530 1530
1540 1540 1540 1539 1539 1539 1539 1538 1538 1538 1538 1537 1537 1536 1536 1536 1536 1535 1535 1535 1535 1535 1535 1535 1535 1534 1534 1534 1533 1533 1532 1532 1531 1531 1530 1530 1530 1529 1529 1529 1529 1529 1529
1540 1539 1539 1539 1539 1539 1538 1538 1538 1537 1537 1537 1536 1536 1535 1535 1535 1535 1534 1534 1534 1534 1534 1534 1534 1534 1533 1533 1533 1532 1532 1532 1531 1531 1530 1529 1529 1529 1529 1529 1529 1529 1529
1539 1539 1539 1539 1539 1538 1538 1538 1537 1537 1537 1536 1536 1535 1535 1535 1534 1534 1534 1534 1533 1533 1533 1533 1533 1533 1532 1532 1532 1532 1531 1531 1531 1530 1530 1529 1529 1529 1528 1528 1528 1528 1528
1538 1538 1538 1538 1538 1538 1538 1537 1537 1537 1536 1536 1535 1535 1534 1534 1533 1533 1533 1532 1532 1532 1532 1531 1531 1531 1531 1531 1531 1531 1530 1530 1530 1529 1529 1529 1528 1528 1528 1528 1528 1528 1528
1537 1537 1537 1537 1537 1537 1537 1536 1536 1536 1535 1535 1535 1534 1533 1533 1532 1532 1532 1531 1531 1531 1531 1530 1530 1530 1530 1530 1530 1530 1529 1529 1529 1528 1528 1528 1527 1527 1527 1527 1527 1527 1527
1535 1535 1535 1535 1535 1535 1535 1535 1535 1535 1534 1534 1533 1533 1532 1531 1531 1530 1530 1530 1530 1530 1529 1529 1528 1528 1528 1528 1528 1528 1527 1527 1527 1527 1527 1527 1526 1526 1526 1526 1526 1525 1525
1533 1534 1534 1534 1534 1534 1533 1533 1533 1533 1533 1532 1532 1531 1531 1530 1530 1529 1529 1528 1528 1528 1527 1527 1527 1526 1526 1526 1526 1526 1526 1526 1525 1525 1525 1525 1525 1524 1524 1524 1524 1524 1524
1531 1532 1532 1532 1532 1532 1532 1532 1532 1532 1531 1531 1530 1530 1529 1529 1528 1528 1527 1527 1526 1526 1525 1525 1525 1524 1524 1524 1524 1524 1523 1523 1522 1523 1522 1522 1522 1522 1522 1522 1522 1522 1522
1529 1529 1529 1530 1530 1530 1530 1530 1530 1530 1529 1529 1528 1528 1527 1527 1527 1526 1525 1525 1524 1524 1524 1523 1522 1522 1522 1521 1521 1521 1521 1520 1520 1520 1520 1519 1519 1519 1520 1519 1520 1520 1520
1526 1526 1527 1527 1527 1527 1527 1527 1527 1527 1527 1526 1526 1526 1525 1525 1525 1524 1523 1523 1522 1521 1521 1520 1520 1520 1520 1519 1519 1519 1518 1518 1518 1517 1517 1516 1516 1516 1516 1516 1517 1517 1517
1523 1523 1524 1524 1524 1524 1525 1525 1525 1524 1524 1524 1524 1524 1523 1522 1522 1522 1521 1520 1519 1519 1518 1518 1517 1517 1517 1516 1516 1515 1515 1514 1513 1513 1514 1513 1512 1512 1512 1512 1513 1513 1513
1520 1520 1521 1521 1521 1521 1522 1522 1522 1521 1521 1521 1521 1521 1520 1520 1520 1519 1518 1518 1516 1516 1515 1515 1514 1514 1513 1513 1512 1512 1511 1511 1510 1509 1510 1510 1509 1509 1508 1508 1509 1509 1509